This is the latest recevied weather packets stored in our database for station/object KB9GXK. If no packets are shown the sender has not sent any weather packets the latest 10 day(s).
| Time | Temp. | Humidity | Pressure | Rain* | Wind** | Luminosity | Snow |
|---|---|---|---|---|---|---|---|
| 1777931285 | 27.22° C | 27% | 998 hPa | 0 mm | - | 361 W/m² | - |
| 1777930983 | 26.67° C | 27% | 998.2 hPa | 0 mm | - | 290 W/m² | - |
| 1777930679 | 26.67° C | 27% | 998.1 hPa | 0 mm | - | 168 W/m² | - |
| 1777930375 | 27.22° C | 28% | 998.3 hPa | 0 mm | - | 139 W/m² | - |
| 1777930072 | 27.78° C | 27% | 998.2 hPa | 0 mm | - | 167 W/m² | - |
| 1777929769 | 28.33° C | 27% | 998.2 hPa | 0 mm | - | 427 W/m² | - |
| 1777929466 | 27.78° C | 27% | 998.2 hPa | 0 mm | - | 439 W/m² | - |
| 1777929162 | 28.33° C | 28% | 998.7 hPa | 0 mm | - | 446 W/m² | - |
| 1777928860 | 27.78° C | 27% | 998.7 hPa | 0 mm | - | 462 W/m² | - |
| 1777928557 | 27.78° C | 26% | 998.4 hPa | 0 mm | - | 476 W/m² | - |
| 1777928254 | 27.78° C | 26% | 998.5 hPa | 0 mm | - | 463 W/m² | - |
| 1777927952 | 28.33° C | 27% | 998.7 hPa | 0 mm | - | 485 W/m² | - |
| 1777927650 | 27.78° C | 25% | 998.7 hPa | 0 mm | - | 471 W/m² | - |
| 1777927348 | 28.33° C | 28% | 998.7 hPa | 0 mm | - | 446 W/m² | - |
| 1777927047 | 27.22° C | 29% | 998.7 hPa | 0 mm | - | 517 W/m² | - |
| 1777926744 | 27.22° C | 28% | 998.6 hPa | 0 mm | - | 523 W/m² | - |
| 1777926444 | 27.22° C | 27% | 998.7 hPa | 0 mm | - | 518 W/m² | - |
| 1777926141 | 27.22° C | 27% | 999.1 hPa | 0 mm | - | 510 W/m² | - |
| 1777925838 | 27.22° C | 26% | 999.1 hPa | 0 mm | - | 552 W/m² | - |
| 1777925535 | 27.22° C | 26% | 999 hPa | 0 mm | - | 549 W/m² | - |
| 1777925233 | 27.22° C | 27% | 999.1 hPa | 0 mm | - | 545 W/m² | - |
| 1777924929 | 26.67° C | 27% | 999.2 hPa | 0 mm | - | 562 W/m² | - |
| 1777924625 | 27.22° C | 27% | 999.2 hPa | 0 mm | - | 581 W/m² | - |
| 1777924321 | 27.22° C | 26% | 999.2 hPa | 0 mm | - | 558 W/m² | - |
| 1777924018 | 27.22° C | 26% | 999.4 hPa | 0 mm | - | 514 W/m² | - |
* Rain latest hour (hover to see other rain measurements)
** Current wind speed in m/s (hover to see current wind gust speed)